BER2419 LGIR-EDDK

Flight info

Callsign BER2419
Flight time 3h 0m
Altitude 40000
Route EPALO1V EPALO M749 DIRMI UL613 YNN UL604 DIMIS DCT RETRA DCT GLOMY DCT RASTU DCT RUGOG DCT DARZA DCT TATZI DCT VEKIR DCT UMDAS T844 ASKIK T840 GULKO GULKO1C
Aircraft A332/H-SDE3GHIJ2J3J5M1RVWXYZ/LB2D1

Departure

Time 2026-05-06 15:57
Airport Heraklion International Nikos Kazantzakis Airport (LGIR)

Arrival

Time 2026-05-06 18:58
Airport Cologne Bonn Airport (EDDK)
Time Latitude Longitude Altitude Speed Heading
2026-05-06 15:14 35.33856 25.17307 92 ft 0 kts 322°
2026-05-06 15:50 35.33858 25.17304 88 ft 2 kts 322°
2026-05-06 15:51 35.33874 25.17289 93 ft 5 kts 322°
2026-05-06 15:51 35.33901 25.17276 93 ft 2 kts 14°
2026-05-06 15:51 35.33912 25.17294 94 ft 4 kts 59°
2026-05-06 15:51 35.33919 25.17355 89 ft 11 kts 90°
2026-05-06 15:52 35.33912 25.17476 93 ft 16 kts 95°
2026-05-06 15:52 35.33903 25.17614 92 ft 17 kts 95°
2026-05-06 15:52 35.33894 25.17755 93 ft 17 kts 95°
2026-05-06 15:52 35.33884 25.17899 95 ft 17 kts 95°
2026-05-06 15:53 35.33874 25.18044 93 ft 17 kts 95°
2026-05-06 15:53 35.33866 25.18175 98 ft 14 kts 95°
2026-05-06 15:53 35.33858 25.18297 99 ft 15 kts 95°
2026-05-06 15:53 35.33846 25.18437 98 ft 18 kts 96°
2026-05-06 15:54 35.33834 25.18602 95 ft 21 kts 94°
2026-05-06 15:54 35.33823 25.18781 94 ft 18 kts 94°
2026-05-06 15:54 35.33818 25.18853 91 ft 0 kts 96°
2026-05-06 15:55 35.33818 25.18858 93 ft 2 kts 96°
2026-05-06 15:55 35.33815 25.18893 93 ft 7 kts 95°
2026-05-06 15:55 35.33837 25.18965 92 ft 12 kts 52°
2026-05-06 15:56 35.33893 25.19011 89 ft 3 kts 358°
2026-05-06 15:56 35.33900 25.18996 91 ft 5 kts 299°
2026-05-06 15:56 35.33913 25.18935 91 ft 8 kts 276°
2026-05-06 15:56 35.33923 25.18801 88 ft 37 kts 275°
2026-05-06 15:57 35.33968 25.18211 94 ft 100 kts 274°
2026-05-06 15:57 35.34037 25.17135 94 ft 151 kts 275°
2026-05-06 15:57 35.34140 25.15817 577 ft 157 kts 278°
2026-05-06 15:57 35.34374 25.14523 1257 ft 155 kts 301°
2026-05-06 15:58 35.35250 25.13886 1847 ft 159 kts 352°
2026-05-06 15:58 35.36472 25.13902 2033 ft 189 kts 356°
2026-05-06 15:58 35.37832 25.13561 2264 ft 217 kts 340°
2026-05-06 15:58 35.39322 25.12856 2648 ft 242 kts 338°
2026-05-06 15:59 35.40948 25.12060 3180 ft 259 kts 340°
2026-05-06 15:59 35.42714 25.11479 3973 ft 264 kts 346°
2026-05-06 15:59 35.44486 25.10902 4970 ft 263 kts 343°
2026-05-06 15:59 35.46245 25.10251 5900 ft 265 kts 343°
2026-05-06 16:00 35.48019 25.09588 6806 ft 268 kts 343°
2026-05-06 16:00 35.49807 25.08928 7718 ft 269 kts 343°
2026-05-06 16:00 35.51611 25.08267 8671 ft 271 kts 343°
2026-05-06 16:00 35.53429 25.07605 9624 ft 273 kts 343°
2026-05-06 16:01 35.55267 25.06938 10441 ft 279 kts 343°
2026-05-06 16:01 35.57204 25.06236 10835 ft 300 kts 343°
2026-05-06 16:01 35.59239 25.05498 11231 ft 318 kts 343°
2026-05-06 16:01 35.61392 25.04718 11885 ft 325 kts 343°
2026-05-06 16:02 35.63580 25.03925 12654 ft 329 kts 343°
2026-05-06 16:02 35.65792 25.03123 13453 ft 333 kts 342°
2026-05-06 16:02 35.68022 25.02314 14196 ft 336 kts 342°
2026-05-06 16:02 35.70276 25.01496 14882 ft 339 kts 342°
2026-05-06 16:03 35.72537 25.00609 15538 ft 343 kts 340°
2026-05-06 16:03 35.74795 24.99610 16192 ft 346 kts 338°
2026-05-06 16:03 35.77053 24.98548 16873 ft 349 kts 337°
2026-05-06 16:03 35.79320 24.97456 17553 ft 351 kts 336°
2026-05-06 16:04 35.81603 24.96353 18218 ft 354 kts 336°
2026-05-06 16:04 35.83910 24.95243 18799 ft 357 kts 337°
2026-05-06 16:04 35.86236 24.94133 19350 ft 360 kts 337°
2026-05-06 16:04 35.88583 24.93021 19895 ft 363 kts 337°
2026-05-06 16:05 35.90921 24.91916 20437 ft 365 kts 337°
2026-05-06 16:05 35.93311 24.90789 20986 ft 368 kts 337°
2026-05-06 16:05 35.95711 24.89657 21524 ft 371 kts 338°
2026-05-06 16:05 35.98134 24.88513 22057 ft 373 kts 338°
2026-05-06 16:06 36.00568 24.87364 22594 ft 376 kts 338°
2026-05-06 16:06 36.03015 24.86193 23096 ft 378 kts 336°
2026-05-06 16:06 36.05379 24.84751 23607 ft 380 kts 329°
2026-05-06 16:06 36.07594 24.82933 24026 ft 383 kts 324°
2026-05-06 16:07 36.09716 24.80989 24426 ft 386 kts 322°
2026-05-06 16:07 36.11839 24.78933 24831 ft 388 kts 321°
2026-05-06 16:07 36.13950 24.76829 25236 ft 390 kts 321°
2026-05-06 16:07 36.16064 24.74700 25631 ft 393 kts 320°
2026-05-06 16:08 36.18188 24.72560 26031 ft 395 kts 320°
2026-05-06 16:08 36.20327 24.70411 26428 ft 397 kts 321°
2026-05-06 16:08 36.22482 24.68254 26805 ft 400 kts 321°
2026-05-06 16:08 36.24652 24.66088 27181 ft 402 kts 321°
2026-05-06 16:09 36.26838 24.63910 27595 ft 404 kts 320°
2026-05-06 16:09 36.29033 24.61723 27979 ft 406 kts 320°
2026-05-06 16:09 36.31236 24.59528 28343 ft 408 kts 320°
2026-05-06 16:09 36.33461 24.57309 28707 ft 410 kts 320°
2026-05-06 16:10 36.35688 24.55085 29066 ft 413 kts 320°
2026-05-06 16:10 36.37934 24.52840 29406 ft 415 kts 320°
2026-05-06 16:10 36.40162 24.50612 29760 ft 417 kts 320°
2026-05-06 16:10 36.42429 24.48343 30111 ft 419 kts 320°
2026-05-06 16:11 36.44707 24.46061 30408 ft 421 kts 320°
2026-05-06 16:11 36.46996 24.43766 30706 ft 423 kts 320°
2026-05-06 16:11 36.49298 24.41456 31002 ft 425 kts 320°
2026-05-06 16:11 36.51601 24.39144 31293 ft 427 kts 320°
2026-05-06 16:12 36.53915 24.36818 31571 ft 429 kts 320°
2026-05-06 16:12 36.56211 24.34508 31859 ft 430 kts 319°
2026-05-06 16:12 36.58544 24.32160 32154 ft 431 kts 319°
2026-05-06 16:12 36.60883 24.29803 32487 ft 432 kts 319°
2026-05-06 16:13 36.63216 24.27453 32895 ft 430 kts 319°
2026-05-06 16:13 36.65535 24.25114 33318 ft 427 kts 319°
2026-05-06 16:13 36.67841 24.22785 33718 ft 426 kts 319°
2026-05-06 16:13 36.70136 24.20466 34120 ft 424 kts 319°
2026-05-06 16:14 36.72424 24.18153 34426 ft 423 kts 319°
2026-05-06 16:14 36.74714 24.15834 34685 ft 424 kts 319°
2026-05-06 16:14 36.76976 24.13543 34937 ft 424 kts 319°
2026-05-06 16:14 36.79265 24.11221 35191 ft 424 kts 319°
2026-05-06 16:15 36.81556 24.08897 35441 ft 424 kts 319°
2026-05-06 16:15 36.83846 24.06571 35722 ft 424 kts 319°
2026-05-06 16:15 36.86132 24.04248 35969 ft 425 kts 319°
2026-05-06 16:15 36.88432 24.01908 36189 ft 425 kts 319°
2026-05-06 16:16 36.90729 23.99570 36425 ft 426 kts 319°
2026-05-06 16:16 36.93023 23.97235 36678 ft 426 kts 319°
2026-05-06 16:16 36.95321 23.94895 36897 ft 426 kts 319°
2026-05-06 16:16 36.97615 23.92557 37146 ft 426 kts 319°
2026-05-06 16:17 36.99914 23.90213 37390 ft 426 kts 319°
2026-05-06 16:17 37.02209 23.87871 37615 ft 426 kts 319°
2026-05-06 16:17 37.04510 23.85521 37845 ft 426 kts 320°
2026-05-06 16:17 37.06803 23.83177 38071 ft 426 kts 320°
2026-05-06 16:18 37.09096 23.80830 38294 ft 426 kts 320°
2026-05-06 16:18 37.11391 23.78480 38526 ft 426 kts 320°
2026-05-06 16:18 37.13687 23.76127 38748 ft 426 kts 320°
2026-05-06 16:18 37.15978 23.73777 38922 ft 426 kts 319°
2026-05-06 16:19 37.18275 23.71419 39078 ft 426 kts 319°
2026-05-06 16:19 37.20568 23.69064 39245 ft 426 kts 319°
2026-05-06 16:19 37.22857 23.66710 39420 ft 425 kts 319°
2026-05-06 16:19 37.25143 23.64357 39591 ft 425 kts 319°
2026-05-06 16:20 37.27427 23.62005 39751 ft 425 kts 319°
2026-05-06 16:20 37.29683 23.59680 39923 ft 424 kts 319°
2026-05-06 16:20 37.31972 23.57319 40037 ft 425 kts 319°
2026-05-06 16:20 37.34265 23.54951 40063 ft 428 kts 319°
2026-05-06 16:21 37.38877 23.50184 40075 ft 429 kts 319°
2026-05-06 16:21 37.43484 23.45415 40059 ft 428 kts 319°
2026-05-06 16:22 37.48083 23.40646 40067 ft 428 kts 319°
2026-05-06 16:22 37.52649 23.35903 40062 ft 428 kts 319°
2026-05-06 16:23 37.57245 23.31122 40051 ft 428 kts 319°
2026-05-06 16:23 37.61844 23.26328 40060 ft 428 kts 319°
2026-05-06 16:24 37.66441 23.21530 40066 ft 428 kts 319°
2026-05-06 16:24 37.71037 23.16725 40060 ft 429 kts 319°
2026-05-06 16:25 37.75632 23.11911 40060 ft 429 kts 319°
2026-05-06 16:25 37.80204 23.07114 40054 ft 429 kts 318°
2026-05-06 16:26 37.84804 23.02280 40054 ft 429 kts 318°
2026-05-06 16:26 37.89401 22.97442 40068 ft 429 kts 318°
2026-05-06 16:27 37.93973 22.92569 40054 ft 429 kts 317°
2026-05-06 16:27 37.98398 22.87495 40058 ft 429 kts 315°
2026-05-06 16:28 38.02748 22.82379 40058 ft 429 kts 315°
2026-05-06 16:28 38.07138 22.77227 40055 ft 429 kts 315°
2026-05-06 16:29 38.11537 22.72086 40057 ft 429 kts 315°
2026-05-06 16:29 38.15944 22.66958 40058 ft 429 kts 315°
2026-05-06 16:30 38.19608 22.62701 40058 ft 429 kts 315°
2026-05-06 16:30 38.24723 22.56746 40069 ft 429 kts 315°
2026-05-06 16:31 38.29124 22.51609 40062 ft 429 kts 315°
2026-05-06 16:31 38.33524 22.46465 40059 ft 429 kts 315°
2026-05-06 16:32 38.37928 22.41306 40066 ft 429 kts 315°
2026-05-06 16:32 38.42324 22.36148 40065 ft 429 kts 315°
2026-05-06 16:33 38.46717 22.30983 40075 ft 429 kts 315°
2026-05-06 16:34 38.53274 22.23260 40074 ft 429 kts 315°
2026-05-06 16:34 38.57656 22.18087 40077 ft 429 kts 315°
2026-05-06 16:35 38.62038 22.12901 40086 ft 430 kts 315°
2026-05-06 16:35 38.66428 22.07695 40078 ft 430 kts 315°
2026-05-06 16:36 38.70818 22.02480 40080 ft 430 kts 315°
2026-05-06 16:36 38.75179 21.97292 40085 ft 430 kts 315°
2026-05-06 16:37 38.78853 21.92913 40085 ft 430 kts 315°
2026-05-06 16:37 38.83239 21.87677 40085 ft 431 kts 315°
2026-05-06 16:38 38.87603 21.82457 40082 ft 431 kts 315°
2026-05-06 16:38 38.91995 21.77195 40082 ft 431 kts 314°
2026-05-06 16:39 38.96385 21.71926 40091 ft 432 kts 314°
2026-05-06 16:39 39.00747 21.66684 40087 ft 432 kts 314°
2026-05-06 16:40 39.05139 21.61394 40087 ft 432 kts 314°
2026-05-06 16:40 39.09522 21.56106 40087 ft 432 kts 314°
2026-05-06 16:41 39.13906 21.50807 40084 ft 432 kts 314°
2026-05-06 16:41 39.18281 21.45509 40082 ft 431 kts 314°
2026-05-06 16:42 39.22655 21.40204 40093 ft 432 kts 314°
2026-05-06 16:42 39.27000 21.34924 40083 ft 431 kts 314°
2026-05-06 16:43 39.31369 21.29604 40088 ft 431 kts 314°
2026-05-06 16:43 39.35735 21.24279 40088 ft 431 kts 314°
2026-05-06 16:44 39.40099 21.18947 40091 ft 431 kts 314°
2026-05-06 16:44 39.44453 21.13618 40099 ft 430 kts 314°
2026-05-06 16:45 39.48797 21.08291 40094 ft 429 kts 314°
2026-05-06 16:45 39.53100 21.03005 40099 ft 429 kts 314°
2026-05-06 16:46 39.57433 20.97674 40097 ft 429 kts 314°
2026-05-06 16:46 39.61762 20.92336 40097 ft 429 kts 314°
2026-05-06 16:47 39.66088 20.86992 40102 ft 429 kts 314°
2026-05-06 16:47 39.70711 20.82067 40103 ft 432 kts 325°
2026-05-06 16:48 39.76057 20.78412 40105 ft 436 kts 330°
2026-05-06 16:48 39.81571 20.75050 40099 ft 438 kts 332°
2026-05-06 16:49 39.87109 20.71738 40090 ft 438 kts 332°
2026-05-06 16:49 39.92605 20.68421 40081 ft 438 kts 332°
2026-05-06 16:50 39.98120 20.65066 40070 ft 438 kts 331°
2026-05-06 16:50 40.03636 20.61695 40067 ft 437 kts 331°
2026-05-06 16:51 40.09165 20.58362 40064 ft 438 kts 332°
2026-05-06 16:51 40.14764 20.55183 40065 ft 439 kts 333°
2026-05-06 16:52 40.20379 20.52041 40053 ft 438 kts 333°
2026-05-06 16:52 40.25948 20.48908 40059 ft 438 kts 333°
2026-05-06 16:53 40.31540 20.45738 40052 ft 437 kts 333°
2026-05-06 16:53 40.37110 20.42568 40054 ft 436 kts 333°
2026-05-06 16:54 40.42681 20.39392 40051 ft 436 kts 333°
2026-05-06 16:54 40.48254 20.36211 40049 ft 436 kts 333°
2026-05-06 16:55 40.53830 20.33023 40052 ft 436 kts 333°
2026-05-06 16:55 40.59358 20.29855 40058 ft 436 kts 333°
2026-05-06 16:56 40.64916 20.26664 40054 ft 435 kts 333°
2026-05-06 16:56 40.70466 20.23473 40051 ft 435 kts 333°
2026-05-06 16:57 40.76023 20.20274 40049 ft 435 kts 332°
2026-05-06 16:57 40.81539 20.17091 40061 ft 435 kts 332°
2026-05-06 16:58 40.87087 20.13883 40053 ft 435 kts 332°
2026-05-06 16:58 40.92630 20.10672 40052 ft 435 kts 332°
2026-05-06 16:59 40.98176 20.07454 40054 ft 435 kts 332°
2026-05-06 16:59 41.03717 20.04233 40052 ft 435 kts 332°
2026-05-06 17:00 41.09261 20.01005 40057 ft 435 kts 332°
2026-05-06 17:00 41.14780 19.97786 40061 ft 435 kts 332°
2026-05-06 17:01 41.20324 19.94545 40066 ft 435 kts 332°
2026-05-06 17:01 41.25863 19.91301 40069 ft 435 kts 332°
2026-05-06 17:02 41.31368 19.88071 40070 ft 435 kts 332°
2026-05-06 17:02 41.36905 19.84816 40073 ft 435 kts 332°
2026-05-06 17:03 41.42437 19.81558 40078 ft 435 kts 332°
2026-05-06 17:03 41.47968 19.78295 40076 ft 434 kts 332°
2026-05-06 17:04 41.53498 19.75027 40065 ft 434 kts 332°
2026-05-06 17:04 41.59019 19.71757 40063 ft 434 kts 332°
2026-05-06 17:05 41.64550 19.68475 40067 ft 434 kts 332°
2026-05-06 17:05 41.70073 19.65192 40060 ft 434 kts 332°
2026-05-06 17:06 41.75565 19.61920 40071 ft 435 kts 331°
2026-05-06 17:06 41.81097 19.58619 40072 ft 435 kts 331°
2026-05-06 17:07 41.86624 19.55315 40073 ft 435 kts 331°
2026-05-06 17:07 41.92156 19.52003 40074 ft 435 kts 331°
2026-05-06 17:08 41.97687 19.48683 40063 ft 436 kts 331°
2026-05-06 17:08 42.03198 19.45368 40066 ft 437 kts 331°
2026-05-06 17:09 42.08753 19.42022 40066 ft 436 kts 331°
2026-05-06 17:09 42.14291 19.38681 40067 ft 436 kts 331°
2026-05-06 17:10 42.19826 19.35321 40073 ft 436 kts 329°
2026-05-06 17:10 42.24846 19.30922 40074 ft 428 kts 316°
2026-05-06 17:11 42.29351 19.25675 40075 ft 427 kts 314°
2026-05-06 17:11 42.33753 19.20267 40075 ft 427 kts 314°
2026-05-06 17:12 42.38137 19.14846 40077 ft 427 kts 314°
2026-05-06 17:12 42.42506 19.09464 40079 ft 427 kts 313°
2026-05-06 17:13 42.46905 19.04053 40070 ft 426 kts 313°
2026-05-06 17:13 42.51302 18.98639 40071 ft 426 kts 313°
2026-05-06 17:14 42.55691 18.93224 40073 ft 427 kts 313°
2026-05-06 17:14 42.60081 18.87795 40073 ft 426 kts 313°
2026-05-06 17:15 42.64432 18.82403 40068 ft 427 kts 313°
2026-05-06 17:15 42.68818 18.76955 40073 ft 427 kts 313°
2026-05-06 17:16 42.73197 18.71507 40064 ft 426 kts 313°
2026-05-06 17:16 42.77563 18.66066 40059 ft 425 kts 313°
2026-05-06 17:17 42.81923 18.60619 40060 ft 425 kts 313°
2026-05-06 17:17 42.86289 18.55154 40045 ft 425 kts 313°
2026-05-06 17:18 42.90647 18.49689 40056 ft 426 kts 313°
2026-05-06 17:18 42.94980 18.44243 40045 ft 427 kts 313°
2026-05-06 17:19 42.99348 18.38743 40042 ft 427 kts 313°
2026-05-06 17:19 43.03709 18.33242 40038 ft 425 kts 313°
2026-05-06 17:20 43.08059 18.27742 40036 ft 425 kts 313°
2026-05-06 17:20 43.12401 18.22241 40039 ft 425 kts 312°
2026-05-06 17:21 43.16716 18.16763 40044 ft 426 kts 312°
2026-05-06 17:21 43.21072 18.11221 40039 ft 428 kts 312°
2026-05-06 17:22 43.25430 18.05668 40043 ft 428 kts 312°
2026-05-06 17:22 43.29786 18.00105 40046 ft 427 kts 312°
2026-05-06 17:23 43.34141 17.94532 40048 ft 427 kts 312°
2026-05-06 17:23 43.37753 17.89900 40048 ft 427 kts 312°
2026-05-06 17:24 43.42102 17.84311 40044 ft 427 kts 312°
2026-05-06 17:24 43.47147 17.77808 40021 ft 428 kts 312°
2026-05-06 17:25 43.50788 17.73111 40033 ft 427 kts 312°
2026-05-06 17:25 43.55090 17.67556 40015 ft 426 kts 311°
2026-05-06 17:26 43.59367 17.61909 40015 ft 425 kts 311°
2026-05-06 17:26 43.63594 17.56208 40023 ft 425 kts 310°
2026-05-06 17:27 43.67827 17.50475 40019 ft 427 kts 310°
2026-05-06 17:27 43.72080 17.44719 40020 ft 428 kts 310°
2026-05-06 17:28 43.76332 17.38963 40022 ft 427 kts 310°
2026-05-06 17:28 43.80548 17.33247 40019 ft 427 kts 310°
2026-05-06 17:29 43.84782 17.27494 40014 ft 427 kts 310°
2026-05-06 17:29 43.89020 17.21719 40017 ft 427 kts 310°
2026-05-06 17:30 43.93265 17.15921 40025 ft 429 kts 310°
2026-05-06 17:30 43.97510 17.10113 40008 ft 428 kts 310°
2026-05-06 17:31 44.01746 17.04311 40018 ft 427 kts 310°
2026-05-06 17:31 44.05949 16.98537 40006 ft 427 kts 310°
2026-05-06 17:32 44.10175 16.92718 40014 ft 427 kts 310°
2026-05-06 17:32 44.14402 16.86887 40001 ft 428 kts 310°
2026-05-06 17:33 44.18638 16.81029 40005 ft 430 kts 310°
2026-05-06 17:33 44.22891 16.75137 39994 ft 431 kts 310°
2026-05-06 17:34 44.27136 16.69244 39995 ft 430 kts 310°
2026-05-06 17:34 44.31376 16.63345 40005 ft 430 kts 309°
2026-05-06 17:35 44.35617 16.57429 39981 ft 431 kts 309°
2026-05-06 17:35 44.39868 16.51487 39981 ft 433 kts 310°
2026-05-06 17:36 44.46271 16.42514 39977 ft 434 kts 310°
2026-05-06 17:36 44.50535 16.36524 39975 ft 434 kts 310°
2026-05-06 17:37 44.54771 16.30558 39964 ft 435 kts 310°
2026-05-06 17:37 44.59042 16.24530 39963 ft 436 kts 310°
2026-05-06 17:38 44.63318 16.18482 39961 ft 436 kts 310°
2026-05-06 17:38 44.67597 16.12413 39961 ft 438 kts 310°
2026-05-06 17:39 44.71890 16.06314 39957 ft 438 kts 310°
2026-05-06 17:39 44.76105 16.00324 39947 ft 420 kts 309°
2026-05-06 17:40 44.78132 15.97443 39947 ft 408 kts 309°
2026-05-06 17:40 44.80104 15.94635 39951 ft 400 kts 309°
2026-05-06 17:40 44.83988 15.89071 39946 ft 397 kts 309°
2026-05-06 17:41 44.87838 15.83536 39950 ft 399 kts 309°
2026-05-06 17:41 44.91734 15.77932 39932 ft 400 kts 309°
2026-05-06 17:42 44.95691 15.72386 39934 ft 401 kts 311°
2026-05-06 17:42 44.99837 15.67071 39952 ft 402 kts 313°
2026-05-06 17:43 45.04015 15.61815 39926 ft 402 kts 313°
2026-05-06 17:43 45.08182 15.56527 39923 ft 402 kts 313°
2026-05-06 17:44 45.12332 15.51216 39939 ft 402 kts 312°
2026-05-06 17:44 45.16459 15.45909 39928 ft 404 kts 312°
2026-05-06 17:45 45.20619 15.40549 39920 ft 404 kts 312°
2026-05-06 17:45 45.24776 15.35185 39920 ft 404 kts 312°
2026-05-06 17:46 45.28910 15.29776 39927 ft 403 kts 310°
2026-05-06 17:46 45.32917 15.24202 39921 ft 402 kts 309°
2026-05-06 17:47 45.36854 15.18618 39924 ft 403 kts 310°
2026-05-06 17:47 45.40833 15.12982 39920 ft 403 kts 310°
2026-05-06 17:48 45.44822 15.07348 39921 ft 403 kts 310°
2026-05-06 17:48 45.48809 15.01715 39923 ft 403 kts 311°
2026-05-06 17:49 45.52900 14.96295 39922 ft 405 kts 313°
2026-05-06 17:49 45.57137 14.90974 39927 ft 406 kts 313°
2026-05-06 17:50 45.61380 14.85648 39921 ft 406 kts 313°
2026-05-06 17:50 45.65619 14.80275 39924 ft 408 kts 313°
2026-05-06 17:51 45.69858 14.74867 39919 ft 408 kts 313°
2026-05-06 17:51 45.74086 14.69457 39918 ft 408 kts 313°
2026-05-06 17:52 45.78315 14.64036 39922 ft 408 kts 313°
2026-05-06 17:52 45.82521 14.58634 39920 ft 409 kts 313°
2026-05-06 17:53 45.86760 14.53180 39924 ft 410 kts 312°
2026-05-06 17:53 45.90997 14.47719 39906 ft 409 kts 313°
2026-05-06 17:54 45.95232 14.42244 39914 ft 409 kts 312°
2026-05-06 17:54 45.99460 14.36768 39919 ft 409 kts 312°
2026-05-06 17:55 46.03695 14.31271 39916 ft 410 kts 313°
2026-05-06 17:55 46.07933 14.25758 39925 ft 411 kts 313°
2026-05-06 17:56 46.12172 14.20232 39911 ft 410 kts 312°
2026-05-06 17:56 46.16401 14.14710 39912 ft 410 kts 312°
2026-05-06 17:57 46.20610 14.09200 39899 ft 410 kts 312°
2026-05-06 17:57 46.24837 14.03652 39895 ft 411 kts 313°
2026-05-06 17:58 46.29078 13.98074 39879 ft 412 kts 313°
2026-05-06 17:58 46.33295 13.92517 39888 ft 412 kts 312°
2026-05-06 17:59 46.37539 13.86912 39870 ft 412 kts 312°
2026-05-06 17:59 46.41774 13.81306 39869 ft 412 kts 312°
2026-05-06 18:00 46.46012 13.75683 39878 ft 412 kts 312°
2026-05-06 18:00 46.50238 13.70065 39876 ft 412 kts 312°
2026-05-06 18:01 46.54462 13.64437 39880 ft 411 kts 312°
2026-05-06 18:01 46.58672 13.58815 39876 ft 411 kts 312°
2026-05-06 18:02 46.62863 13.53203 39878 ft 412 kts 312°
2026-05-06 18:02 46.67076 13.47552 39896 ft 412 kts 312°
2026-05-06 18:03 46.71292 13.41886 39881 ft 412 kts 312°
2026-05-06 18:03 46.75515 13.36192 39885 ft 417 kts 311°
2026-05-06 18:04 46.79821 13.30368 39873 ft 426 kts 312°
2026-05-06 18:04 46.84217 13.24415 39882 ft 435 kts 312°
2026-05-06 18:05 46.88669 13.18377 39868 ft 444 kts 312°
2026-05-06 18:05 46.93247 13.12155 39863 ft 453 kts 312°
2026-05-06 18:06 46.97894 13.05823 39848 ft 457 kts 312°
2026-05-06 18:06 47.02543 12.99477 39844 ft 456 kts 312°
2026-05-06 18:07 47.07186 12.93121 39841 ft 456 kts 312°
2026-05-06 18:07 47.11823 12.86753 39821 ft 457 kts 312°
2026-05-06 18:08 47.16445 12.80385 39827 ft 459 kts 312°
2026-05-06 18:08 47.21104 12.73952 39803 ft 460 kts 312°
2026-05-06 18:09 47.25768 12.67498 39802 ft 460 kts 312°
2026-05-06 18:09 47.30431 12.61030 39783 ft 460 kts 311°
2026-05-06 18:10 47.35078 12.54568 39785 ft 458 kts 312°
2026-05-06 18:10 47.39714 12.48103 39778 ft 459 kts 312°
2026-05-06 18:11 47.43576 12.42701 39781 ft 461 kts 312°
2026-05-06 18:11 47.48987 12.35119 39768 ft 461 kts 312°
2026-05-06 18:12 47.53639 12.28585 39771 ft 461 kts 312°
2026-05-06 18:12 47.58284 12.22042 39777 ft 461 kts 311°
2026-05-06 18:13 47.62157 12.16572 39780 ft 463 kts 311°
2026-05-06 18:13 47.66762 12.09908 39790 ft 460 kts 307°
2026-05-06 18:14 47.70738 12.02497 39778 ft 458 kts 303°
2026-05-06 18:14 47.74541 11.94923 39817 ft 457 kts 302°
2026-05-06 18:15 47.78299 11.87309 39820 ft 457 kts 301°
2026-05-06 18:15 47.82061 11.79683 39824 ft 456 kts 301°
2026-05-06 18:16 47.85821 11.72062 39831 ft 457 kts 301°
2026-05-06 18:16 47.89560 11.64473 39840 ft 457 kts 301°
2026-05-06 18:17 47.93318 11.56825 39848 ft 457 kts 301°
2026-05-06 18:17 47.97074 11.49159 39866 ft 458 kts 301°
2026-05-06 18:18 48.00832 11.41464 39856 ft 459 kts 301°
2026-05-06 18:18 48.04598 11.33731 39857 ft 460 kts 301°
2026-05-06 18:19 48.08360 11.25987 39857 ft 460 kts 301°
2026-05-06 18:19 48.12117 11.18232 39845 ft 460 kts 301°
2026-05-06 18:20 48.15870 11.10461 39826 ft 460 kts 301°
2026-05-06 18:20 48.19596 11.02725 39823 ft 460 kts 301°
2026-05-06 18:21 48.23345 10.94918 39839 ft 460 kts 301°
2026-05-06 18:21 48.27087 10.87103 39822 ft 460 kts 301°
2026-05-06 18:22 48.30796 10.79335 39825 ft 460 kts 301°
2026-05-06 18:22 48.34521 10.71512 39854 ft 459 kts 301°
2026-05-06 18:23 48.38238 10.63685 39853 ft 458 kts 301°
2026-05-06 18:23 48.41938 10.55866 39853 ft 458 kts 301°
2026-05-06 18:24 48.45631 10.48042 39854 ft 458 kts 301°
2026-05-06 18:24 48.49318 10.40208 39873 ft 458 kts 301°
2026-05-06 18:25 48.53006 10.32348 39860 ft 458 kts 301°
2026-05-06 18:25 48.56664 10.24532 39859 ft 459 kts 301°
2026-05-06 18:26 48.60338 10.16657 39859 ft 459 kts 301°
2026-05-06 18:26 48.64014 10.08755 39861 ft 459 kts 301°
2026-05-06 18:27 48.67677 10.00859 39849 ft 458 kts 301°
2026-05-06 18:27 48.71349 9.92950 39841 ft 460 kts 303°
2026-05-06 18:28 48.75561 9.85664 39840 ft 463 kts 309°
2026-05-06 18:28 48.80007 9.78553 39840 ft 464 kts 310°
2026-05-06 18:29 48.84483 9.71493 39839 ft 464 kts 310°
2026-05-06 18:29 48.88964 9.64396 39841 ft 464 kts 310°
2026-05-06 18:30 48.93434 9.57272 39836 ft 466 kts 310°
2026-05-06 18:30 48.97898 9.50131 39833 ft 466 kts 310°
2026-05-06 18:31 49.02365 9.42963 39832 ft 466 kts 310°
2026-05-06 18:31 49.06796 9.35834 39829 ft 466 kts 310°
2026-05-06 18:32 49.11252 9.28642 39839 ft 466 kts 310°
2026-05-06 18:32 49.15694 9.21457 39826 ft 464 kts 310°
2026-05-06 18:33 49.20120 9.14276 39825 ft 463 kts 310°
2026-05-06 18:33 49.24540 9.07086 39821 ft 464 kts 310°
2026-05-06 18:34 49.28953 8.99885 39816 ft 464 kts 310°
2026-05-06 18:34 49.31158 8.96279 39500 ft 463 kts 310°
2026-05-06 18:34 49.33353 8.92686 39189 ft 458 kts 309°
2026-05-06 18:35 49.35523 8.89132 38892 ft 454 kts 310°
2026-05-06 18:35 49.37716 8.85668 38494 ft 454 kts 316°
2026-05-06 18:35 49.40298 8.82846 37939 ft 459 kts 329°
2026-05-06 18:35 49.43253 8.80912 37343 ft 463 kts 337°
2026-05-06 18:36 49.46308 8.79322 36725 ft 465 kts 340°
2026-05-06 18:36 49.49419 8.77903 36081 ft 467 kts 342°
2026-05-06 18:36 49.52562 8.76561 35438 ft 470 kts 342°
2026-05-06 18:36 49.55681 8.75256 34811 ft 472 kts 342°
2026-05-06 18:37 49.58850 8.73923 34184 ft 473 kts 342°
2026-05-06 18:37 49.62042 8.72560 33491 ft 475 kts 342°
2026-05-06 18:37 49.65221 8.71182 32809 ft 475 kts 342°
2026-05-06 18:37 49.68403 8.69789 32218 ft 473 kts 342°
2026-05-06 18:38 49.71567 8.68393 31610 ft 471 kts 343°
2026-05-06 18:38 49.74713 8.67000 31042 ft 468 kts 343°
2026-05-06 18:38 49.77837 8.65614 30537 ft 464 kts 343°
2026-05-06 18:38 49.80928 8.64240 30063 ft 459 kts 343°
2026-05-06 18:39 49.83985 8.62880 29544 ft 454 kts 344°
2026-05-06 18:39 49.87013 8.61532 28959 ft 450 kts 344°
2026-05-06 18:39 49.89973 8.60214 28411 ft 447 kts 343°
2026-05-06 18:40 49.95899 8.57571 27330 ft 439 kts 343°
2026-05-06 18:40 49.98820 8.56266 26791 ft 435 kts 343°
2026-05-06 18:40 50.01715 8.54970 26296 ft 431 kts 343°
2026-05-06 18:40 50.04584 8.53682 25796 ft 427 kts 342°
2026-05-06 18:41 50.07401 8.52315 25301 ft 423 kts 341°
2026-05-06 18:41 50.10185 8.50855 24817 ft 419 kts 340°
2026-05-06 18:41 50.12926 8.49364 24382 ft 414 kts 339°
2026-05-06 18:41 50.15616 8.47881 23984 ft 408 kts 339°
2026-05-06 18:42 50.18290 8.46407 23531 ft 405 kts 339°
2026-05-06 18:42 50.20941 8.44952 23010 ft 402 kts 339°
2026-05-06 18:42 50.23571 8.43517 22455 ft 399 kts 339°
2026-05-06 18:42 50.26185 8.42094 21940 ft 396 kts 339°
2026-05-06 18:43 50.28718 8.40487 21391 ft 391 kts 331°
2026-05-06 18:43 50.31100 8.38460 20869 ft 388 kts 328°
2026-05-06 18:43 50.33409 8.36318 20344 ft 384 kts 327°
2026-05-06 18:43 50.35664 8.34111 19858 ft 381 kts 325°
2026-05-06 18:44 50.37883 8.31881 19430 ft 376 kts 324°
2026-05-06 18:44 50.40072 8.29661 18953 ft 373 kts 324°
2026-05-06 18:44 50.42239 8.27461 18465 ft 370 kts 324°
2026-05-06 18:44 50.44394 8.25279 17948 ft 367 kts 324°
2026-05-06 18:45 50.46537 8.23117 17385 ft 365 kts 324°
2026-05-06 18:45 50.48669 8.20973 16822 ft 363 kts 324°
2026-05-06 18:45 50.50760 8.18871 16301 ft 360 kts 324°
2026-05-06 18:45 50.52184 8.17441 15952 ft 358 kts 324°
2026-05-06 18:46 50.54962 8.14648 15274 ft 355 kts 324°
2026-05-06 18:46 50.57034 8.12562 14745 ft 353 kts 324°
2026-05-06 18:46 50.59095 8.10484 14251 ft 351 kts 324°
2026-05-06 18:46 50.61140 8.08417 13767 ft 348 kts 324°
2026-05-06 18:47 50.63181 8.06349 12974 ft 351 kts 324°
2026-05-06 18:47 50.65257 8.04239 12027 ft 359 kts 324°
2026-05-06 18:47 50.67360 8.02103 11327 ft 359 kts 324°
2026-05-06 18:47 50.69454 7.99977 10683 ft 357 kts 324°
2026-05-06 18:48 50.71524 7.97873 10189 ft 351 kts 324°
2026-05-06 18:48 50.73548 7.95813 9896 ft 340 kts 326°
2026-05-06 18:48 50.75370 7.93609 9748 ft 322 kts 313°
2026-05-06 18:48 50.76714 7.90941 9547 ft 307 kts 304°
2026-05-06 18:49 50.77866 7.88237 9273 ft 287 kts 302°
2026-05-06 18:49 50.78944 7.85642 8910 ft 278 kts 302°
2026-05-06 18:49 50.79988 7.83127 8839 ft 277 kts 302°
2026-05-06 18:49 50.81044 7.80589 8589 ft 275 kts 302°
2026-05-06 18:50 50.82094 7.78077 8211 ft 273 kts 303°
2026-05-06 18:50 50.83141 7.75575 7888 ft 272 kts 303°
2026-05-06 18:50 50.84183 7.73083 7559 ft 271 kts 303°
2026-05-06 18:50 50.85221 7.70599 7265 ft 270 kts 303°
2026-05-06 18:51 50.86256 7.68122 6953 ft 269 kts 303°
2026-05-06 18:51 50.87290 7.65646 6668 ft 268 kts 303°
2026-05-06 18:51 50.88301 7.63224 6376 ft 267 kts 303°
2026-05-06 18:51 50.89324 7.60770 6006 ft 267 kts 304°
2026-05-06 18:52 50.90347 7.58317 5612 ft 264 kts 304°
2026-05-06 18:52 50.91340 7.55929 5204 ft 254 kts 304°
2026-05-06 18:52 50.92295 7.53632 4828 ft 245 kts 304°
2026-05-06 18:52 50.93220 7.51405 4444 ft 237 kts 304°
2026-05-06 18:53 50.94114 7.49251 4063 ft 231 kts 305°
2026-05-06 18:53 50.94970 7.47125 3672 ft 226 kts 300°
2026-05-06 18:53 50.95414 7.44792 3456 ft 220 kts 274°
2026-05-06 18:53 50.95102 7.42443 3367 ft 219 kts 251°
2026-05-06 18:54 50.94481 7.40244 3245 ft 215 kts 247°
2026-05-06 18:54 50.93840 7.38177 3121 ft 203 kts 246°
2026-05-06 18:54 50.93228 7.36218 3008 ft 194 kts 246°
2026-05-06 18:54 50.92645 7.34317 2949 ft 191 kts 248°
2026-05-06 18:55 50.92079 7.32430 2733 ft 188 kts 248°
2026-05-06 18:55 50.91532 7.30622 2459 ft 179 kts 248°
2026-05-06 18:55 50.91009 7.28895 2210 ft 170 kts 248°
2026-05-06 18:55 50.90507 7.27232 1979 ft 166 kts 248°
2026-05-06 18:56 50.90008 7.25580 1762 ft 166 kts 248°
2026-05-06 18:56 50.89510 7.23931 1516 ft 166 kts 248°
2026-05-06 18:56 50.89016 7.22293 1262 ft 160 kts 248°
2026-05-06 18:56 50.88560 7.20771 1023 ft 145 kts 248°
2026-05-06 18:57 50.88154 7.19455 843 ft 136 kts 248°
2026-05-06 18:57 50.87779 7.18206 692 ft 131 kts 248°
2026-05-06 18:57 50.87394 7.16935 507 ft 128 kts 248°
2026-05-06 18:57 50.87013 7.15682 330 ft 127 kts 248°
2026-05-06 18:58 50.86769 7.14854 263 ft 119 kts 247°
2026-05-06 18:58 50.86483 7.13913 256 ft 68 kts 245°
2026-05-06 18:58 50.86368 7.13542 255 ft 9 kts 243°
2026-05-06 18:58 50.86385 7.13451 254 ft 11 kts 311°
2026-05-06 18:59 50.86448 7.13362 250 ft 10 kts 319°
2026-05-06 18:59 50.86510 7.13386 247 ft 11 kts 58°
2026-05-06 18:59 50.86550 7.13523 243 ft 16 kts 65°
2026-05-06 18:59 50.86601 7.13688 245 ft 17 kts 63°
2026-05-06 19:00 50.86639 7.13812 248 ft 6 kts 65°
2026-05-06 19:00 50.86655 7.13868 249 ft 6 kts 65°
2026-05-06 19:00 50.86670 7.13921 251 ft 5 kts 65°
2026-05-06 19:00 50.86688 7.13980 253 ft 8 kts 65°
2026-05-06 19:01 50.86718 7.14081 255 ft 12 kts 61°
2026-05-06 19:01 50.86787 7.14118 254 ft 12 kts 334°
2026-05-06 19:01 50.86867 7.14023 249 ft 16 kts 335°
2026-05-06 19:01 50.86947 7.14013 253 ft 10 kts 353°
2026-05-06 19:02 50.87015 7.13949 252 ft 14 kts 318°
2026-05-06 19:02 50.87094 7.13833 249 ft 17 kts 317°
2026-05-06 19:02 50.87190 7.13695 246 ft 20 kts 317°
2026-05-06 19:02 50.87300 7.13534 242 ft 19 kts 317°
2026-05-06 19:03 50.87377 7.13422 240 ft 16 kts 317°
2026-05-06 19:03 50.87452 7.13314 238 ft 19 kts 317°
2026-05-06 19:03 50.87546 7.13178 239 ft 18 kts 317°
2026-05-06 19:03 50.87614 7.13078 238 ft 13 kts 317°
2026-05-06 19:04 50.87686 7.12972 238 ft 15 kts 317°
2026-05-06 19:04 50.87732 7.12904 240 ft 9 kts 318°
2026-05-06 19:04 50.87745 7.12886 239 ft 9 kts 318°